This is the latest recevied weather packets stored in our database for station/object KK6LZB. If no packets are shown the sender has not sent any weather packets the latest 10 day(s).
| Time | Temp. | Humidity | Pressure | Rain* | Wind** | Luminosity | Snow |
|---|---|---|---|---|---|---|---|
| 1778173946 | 19.44° C | 80% | 1018.5 hPa | 0 mm | - | 541 W/m² | - |
| 1778173643 | 19.44° C | 79% | 1018.6 hPa | 0 mm | - | 528 W/m² | - |
| 1778173340 | 19.44° C | 79% | 1018.5 hPa | 0 mm | - | 517 W/m² | - |
| 1778173036 | 18.89° C | 81% | 1018.7 hPa | 0 mm | - | 502 W/m² | - |
| 1778172732 | 19.44° C | 80% | 1018.6 hPa | 0 mm | - | 484 W/m² | - |
| 1778172428 | 19.44° C | 80% | 1018.7 hPa | 0 mm | - | 476 W/m² | - |
| 1778172126 | 19.44° C | 81% | 1018.5 hPa | 0 mm | - | 462 W/m² | - |
| 1778171822 | 19.44° C | 80% | 1018.4 hPa | 0 mm | - | 443 W/m² | - |
| 1778171520 | 19.44° C | 81% | 1018.7 hPa | 0 mm | - | 432 W/m² | - |
| 1778171216 | 18.89° C | 82% | 1018.5 hPa | 0 mm | - | 421 W/m² | - |
| 1778170912 | 17.78° C | 85% | 1018.5 hPa | 0 mm | - | 404 W/m² | - |
| 1778170609 | 17.78° C | 85% | 1018.5 hPa | 0 mm | - | 390 W/m² | - |
| 1778170305 | 17.22° C | 87% | 1018.5 hPa | 0 mm | - | 375 W/m² | - |
| 1778170002 | 16.67° C | 88% | 1018.6 hPa | 0 mm | - | 56 W/m² | - |
| 1778169698 | 16.67° C | 89% | 1018.3 hPa | 0 mm | - | 52 W/m² | - |
| 1778169394 | 16.67° C | 89% | 1018.6 hPa | 0 mm | - | 50 W/m² | - |
| 1778169091 | 16.67° C | 90% | 1018.8 hPa | 0 mm | - | 49 W/m² | - |
| 1778168787 | 16.11° C | 88% | 1018.6 hPa | 0 mm | - | 46 W/m² | - |
| 1778168485 | 16.11° C | 90% | 1018.8 hPa | 0 mm | - | 45 W/m² | - |
| 1778168181 | 16.11° C | 90% | 1018.7 hPa | 0 mm | - | 43 W/m² | - |
| 1778167878 | 15.56° C | 90% | 1019 hPa | 0 mm | - | 42 W/m² | - |
| 1778167574 | 15.56° C | 91% | 1019 hPa | 0 mm | - | 41 W/m² | - |
| 1778167270 | 15.56° C | 91% | 1019 hPa | 0 mm | - | 40 W/m² | - |
| 1778166966 | 15.56° C | 92% | 1018.8 hPa | 0 mm | - | 39 W/m² | - |
| 1778166664 | 15° C | 92% | 1018.7 hPa | 0 mm | - | 37 W/m² | - |
* Rain latest hour (hover to see other rain measurements)
** Current wind speed in m/s (hover to see current wind gust speed)